Location: Pilipovskiye Korichintsy
(49.1833°N, 27.4667°E)
Time: 12:34:18
(UTC+00:00)

Cosmos 1066 Rocket - Pass Details

Date: 14 July 2020
Orbit: 799 x 894 km, 81.2° (Epoch: 07 August)

Event Time Altitude Azimuth Distance (km) Brightness Sun altitude
Rises 01:04:13 0° 345° (NNW) 3,512 8.0 -9.9°
Reaches altitude 10° 01:06:42 10° 342° (NNW) 2,573 7.2 -9.7°
Maximum altitude 01:12:28 61° 264° (W) 1,012 4.4 -9.1°
Drops below altitude 10° 01:18:12 10° 185° (S) 2,549 6.2 -8.4°
Enters shadow 01:20:20 - 183° (S) 3,359 6.9 -8.2°
